[[{"header":{"parameterUnit":"m.s-1","parameterCategory":1,"la1":30.2991,"la2":30.254,"lo1":-89.0895,"lo2":-89.0444,"dy":0.0017,"dx":0.0017,"nx":28,"ny":28,"refTime":"2026-03-04T09:00:00:Z","depth":0,"parameterNumber":2,"parameterNumberName":"U-component_of_WINDS"},"data":[0,0,0,0,0,0,0,0,0,0,0,0,0,0,0,0,0,0,0,0,0,0,0,0,0,0,0,0,0,0,0,0,0,0,0,0,0,0,0,0,0,0,0,0,0,0,0,0,0,0,0,0,0,0,0,0,0,0,-3.2335,-3.2336,0,-3.2376,-3.2377,-3.2377,-3.2339,-3.2338,-3.2336,-3.2335,-3.2382,-3.2384,-3.2387,0,0,0,0,0,0,0,0,0,0,0,0,0,-3.2231,-3.2233,-3.2335,-3.2336,-3.2336,-3.2376,-3.2377,-3.2377,-3.234,-3.2338,-3.2336,-3.2334,-3.2381,-3.2384,-3.2387,0,0,0,0,0,0,0,0,0,0,0,0,0,-3.2275,-3.2234,-3.2335,-3.2322,-3.2321,-3.2376,-3.2377,-3.2377,-3.234,-3.2338,-3.2335,-3.2333,-3.238,-3.2384,-3.2388,-3.2459,0,0,-3.24,-3.2402,0,0,0,0,0,0,0,0,-3.2272,-3.2279,-3.2324,-3.2323,-3.2322,-3.235,-3.2357,-3.2405,-3.2341,-3.2333,-3.2335,-3.2332,-3.2374,-3.2378,-3.2391,-3.2461,-3.2463,-3.24,-3.2403,-3.2405,-3.2406,0,0,0,0,0,0,0,-3.2269,-3.2277,-3.2351,-3.2324,-3.2324,-3.2317,-3.232,-3.2366,-3.2366,-3.2334,-3.2331,-3.2336,-3.2373,-3.2387,-3.2392,-3.2464,-3.24,-3.2404,-3.2406,-3.2408,-3.2597,-3.26,0,0,0,0,0,0,-3.2267,-3.2275,-3.235,-3.2353,-3.2291,-3.232,-3.2324,-3.2344,-3.2365,-3.2366,-3.2338,-3.2334,-3.2381,-3.2387,-3.2393,-3.2479,-3.2405,-3.2408,-3.2411,-3.2595,-3.2598,-3.2601,0,0,0,0,0,0,-3.2265,-3.2274,-3.2348,-3.2313,-3.2322,-3.2324,-3.2347,-3.2346,-3.236,-3.2368,-3.2369,-3.2352,-3.238,-3.2388,-3.2443,-3.248,-3.241,-3.2414,-3.2592,-3.2596,-3.2599,-3.265,0,0,0,0,0,0,-3.2262,-3.2274,-3.2298,-3.2314,-3.2324,-3.2395,-3.2349,-3.2348,-3.2366,-3.2361,-3.2382,-3.2383,-3.2378,-3.2437,-3.2447,-3.2484,-3.2417,-3.2588,-3.2593,-3.2598,-3.2645,-3.2655,-3.2663,0,0,0,0,0,-3.2258,-3.2312,-3.23,-3.2309,-3.2355,-3.2397,-3.2404,-3.2396,-3.2369,-3.2396,-3.2402,-3.2382,-3.2475,-3.2443,-3.2454,-3.2493,-3.2586,-3.2592,-3.2598,-3.264,-3.2653,-3.2663,0,0,0,0,0,0,-3.2301,-3.2313,-3.23,-3.2359,-3.2378,-3.2391,-3.2424,-3.2409,-3.2436,-3.2431,-3.2422,-3.2427,-3.2486,-3.2495,-3.246,-3.2564,-3.2526,-3.2535,-3.2555,-3.2567,-3.2576,-3.2572,-3.242,0,0,0,0,0,-3.2318,-3.2349,-3.2359,-3.241,-3.242,-3.2421,-3.2439,-3.2432,-3.2451,-3.2459,-3.2469,-3.249,-3.2524,-3.2546,-3.2578,-3.2647,-3.2652,-3.2679,-3.2689,-3.2696,-3.2703,-3.2743,-3.2755,-3.262,-3.262,-3.262,0,0,-3.2351,-3.2362,-3.2383,-3.2419,-3.2432,-3.2468,-3.2427,-3.2466,-3.2492,-3.2465,-3.2517,-3.2527,-3.255,-3.2613,-3.2641,-3.2622,-3.2742,-3.2704,-3.271,-3.2713,-3.275,-3.2763,-3.2774,-3.2624,-3.2623,-3.2623,0,0,-3.2431,-3.2442,-3.2486,-3.2501,-3.2521,-3.2522,-3.2533,-3.2549,-3.2554,-3.2606,-3.2587,-3.2621,-3.2679,-3.2696,-3.2713,-3.2804,-3.2788,-3.2815,-3.2863,-3.2902,-3.2913,-3.2922,-3.2955,-3.2967,-3.2822,-3.2822,-3.2822,0,-3.2471,-3.2521,-3.2512,-3.2552,-3.257,-3.2546,-3.2593,-3.2608,-3.2639,-3.2653,-3.2632,-3.2706,-3.2719,-3.2787,-3.281,-3.2824,-3.2838,-3.2811,-3.2912,-3.2921,-3.293,-3.2961,-3.2974,-3.2826,-3.2825,-3.2825,-3.2825,0,-3.257,-3.2605,-3.264,-3.2668,-3.2691,-3.2734,-3.2734,-3.2758,-3.275,-3.2754,-3.281,-3.2826,-3.2861,-3.2878,-3.287,-3.2946,-3.2933,-3.2912,-3.2874,-3.2946,-3.2976,-3.2988,-3.283,-3.2829,-3.2828,-3.2827,0,0,-3.2674,-3.2699,-3.2712,-3.2726,-3.2749,-3.2777,-3.2822,-3.2855,-3.2877,-3.29,-3.2938,-3.299,-3.2971,-3.299,-3.2985,-3.3019,-3.3092,-3.2994,-3.2995,-3.3012,-3.3178,-3.3193,-3.3207,-3.3082,-3.3085,-3.3086,-3.3176,0,-3.2754,-3.2828,-3.2823,-3.2894,-3.2928,-3.2909,-3.2948,-3.2968,-3.2974,-3.3006,-3.3013,-3.305,-3.3022,-3.3034,-3.3067,-3.3076,-3.3125,-3.307,-3.3119,-3.3121,-3.3113,-3.3222,-3.3238,-3.3321,-3.3188,-3.319,-3.3191,0,-3.2857,-3.2883,-3.2957,-3.2977,-3.2991,-3.3026,-3.3058,-3.3088,-3.3112,-3.3114,-3.3137,-3.3128,-3.3176,-3.3138,-3.3205,-3.3167,-3.3188,-3.3196,-3.32,-3.3203,-3.3159,-3.3229,-3.3347,-3.336,-3.3209,-3.3208,-3.3206,0,-3.2926,-3.298,-3.3032,-3.3044,-3.3069,-3.3094,-3.3106,-3.3127,-3.3149,-3.3178,-3.3192,-3.3228,-3.3247,-3.3275,-3.3277,-3.3249,-3.3346,-3.3307,-3.335,-3.335,-3.337,-3.3368,-3.3493,-3.3385,-3.3385,-3.3384,-3.3384,0,-3.3015,-3.3061,-3.3063,-3.3095,-3.3147,-3.3143,-3.3196,-3.3206,-3.3225,-3.3261,-3.3248,-3.3281,-3.3282,-3.3318,-3.332,-3.3376,-3.3385,-3.339,-3.339,-3.339,-3.339,-3.3403,-3.3397,-3.3388,-3.3387,-3.3386,-3.3386,0,-3.31,-3.3103,-3.3158,-3.3177,-3.3184,-3.3222,-3.3239,-3.3271,-3.3277,-3.3323,-3.3333,-3.3343,-3.3385,-3.339,-3.3439,-3.3441,-3.3509,-3.3503,-3.35,-3.3499,-3.3542,-3.3537,-3.3678,-3.3697,-3.3577,-3.3578,-3.3579,0,-3.3156,-3.3191,-3.3215,-3.3237,-3.325,-3.3286,-3.3308,-3.3307,-3.3331,-3.3362,-3.3391,-3.3431,-3.3463,-3.3531,-3.3545,-3.3583,-3.3578,-3.3625,-3.3583,-3.3584,-3.3579,-3.3576,-3.358,-3.3632,-3.3633,-3.3635,-3.3635,0,-3.3256,-3.3256,-3.3287,-3.332,-3.3347,-3.3373,-3.3398,-3.3418,-3.342,-3.3449,-3.349,-3.3515,-3.3566,-3.3607,-3.3645,-3.366,-3.3649,-3.3649,-3.3661,-3.3661,-3.3658,-3.3661,-3.3521,-3.3645,-3.3644,-3.3643,-3.3643,-3.3642,-3.3327,-3.3359,-3.3381,-3.3417,-3.3436,-3.346,-3.3491,-3.3502,-3.3536,-3.3576,-3.3574,-3.3621,-3.3648,-3.3698,-3.3716,-3.3755,-3.3739,-3.3757,-3.3761,-3.3765,-3.3769,-3.3653,-3.3762,-3.3762,-3.3761,-3.3761,-3.3761,0,-3.3426,-3.344,-3.3474,-3.3509,-3.3539,-3.3525,-3.3553,-3.3579,-3.362,-3.3645,-3.3677,-3.3727,-3.3767,-3.3785,-3.3826,-3.3853,-3.385,-3.3864,-3.3862,-3.3866,-3.378,-3.3766,-3.3867,-3.3867,-3.3867,-3.3867,-3.3867,-3.3867,-3.3481,-3.3533,-3.3537,-3.36,-3.3614,-3.3658,-3.3676,-3.3699,-3.3719,-3.3775,-3.3808,-3.3819,-3.3843,-3.3885,-3.3923,-3.3928,-3.3944,-3.396,-3.3963,-3.3882,-3.3871,-3.3861,-3.3847,-3.3964,-3.3964,-3.4045,-3.4045,-3.4046]},{"header":{"parameterUnit":"m.s-1","parameterCategory":1,"la1":30.2991,"la2":30.254,"lo1":-89.0895,"lo2":-89.0444,"dy":0.0017,"dx":0.0017,"nx":28,"ny":28,"refTime":"2026-03-04T09:00:00:Z","depth":0,"parameterNumber":3,"parameterNumberName":"V-component_of_WINDS"},"data":[0,0,0,0,0,0,0,0,0,0,0,0,0,0,0,0,0,0,0,0,0,0,0,0,0,0,0,0,0,0,0,0,0,0,0,0,0,0,0,0,0,0,0,0,0,0,0,0,0,0,0,0,0,0,0,0,0,0,0.8182,0.8183,0,0.8292,0.8293,0.8294,0.8413,0.8414,0.8416,0.8418,0.8532,0.8533,0.8534,0,0,0,0,0,0,0,0,0,0,0,0,0,0.8075,0.8076,0.8182,0.8183,0.8185,0.8292,0.8293,0.8295,0.8412,0.8414,0.8416,0.8418,0.8531,0.8533,0.8535,0,0,0,0,0,0,0,0,0,0,0,0,0,0.8147,0.8077,0.8182,0.8256,0.8264,0.8291,0.8293,0.8295,0.8412,0.8414,0.8417,0.8419,0.853,0.8533,0.8535,0.8498,0,0,0.8542,0.8543,0,0,0,0,0,0,0,0,0.8143,0.8151,0.8244,0.8251,0.826,0.8341,0.8298,0.8363,0.8411,0.8356,0.8418,0.8421,0.8466,0.8474,0.8489,0.8504,0.8508,0.8542,0.8543,0.8544,0.8545,0,0,0,0,0,0,0,0.8137,0.8147,0.8225,0.8245,0.8255,0.8285,0.8298,0.8311,0.8396,0.8361,0.837,0.8381,0.8471,0.8487,0.8493,0.851,0.8542,0.8544,0.8545,0.8546,0.8501,0.8499,0,0,0,0,0,0,0.8121,0.8142,0.8222,0.8229,0.8206,0.8284,0.8299,0.8312,0.8396,0.8411,0.8379,0.8386,0.8482,0.849,0.8497,0.8461,0.8544,0.8546,0.8547,0.8504,0.8501,0.8498,0,0,0,0,0,0,0.8118,0.8127,0.8218,0.8188,0.8201,0.8284,0.8298,0.8313,0.8329,0.8409,0.8425,0.8379,0.8484,0.8494,0.8497,0.8466,0.8547,0.8549,0.8507,0.8503,0.8499,0.8386,0,0,0,0,0,0,0.8115,0.8125,0.8112,0.8186,0.8203,0.8215,0.8296,0.8314,0.8332,0.8343,0.8414,0.8428,0.8487,0.8493,0.8499,0.8471,0.8551,0.851,0.8505,0.85,0.8393,0.8379,0.8367,0,0,0,0,0,0.811,0.8076,0.8111,0.812,0.8187,0.8213,0.8222,0.829,0.8329,0.8317,0.8369,0.8426,0.8468,0.8493,0.85,0.8472,0.8512,0.8506,0.8501,0.8399,0.8382,0.8367,0,0,0,0,0,0,0.7996,0.8087,0.8127,0.8115,0.8155,0.8233,0.8219,0.827,0.83,0.8309,0.8393,0.8408,0.8401,0.8437,0.8462,0.8441,0.8498,0.8494,0.8418,0.8403,0.839,0.8382,0.8553,0,0,0,0,0,0.7969,0.7982,0.8061,0.8043,0.8061,0.8136,0.815,0.8199,0.8244,0.8262,0.8314,0.8356,0.838,0.8393,0.8419,0.8399,0.8416,0.8383,0.837,0.8359,0.8354,0.8347,0.8334,0.8479,0.8479,0.8479,0,0,0.7914,0.7966,0.7969,0.8021,0.8058,0.807,0.815,0.8159,0.8169,0.8264,0.827,0.8309,0.8362,0.8353,0.8353,0.8383,0.8318,0.8352,0.8342,0.8344,0.834,0.8326,0.8314,0.8475,0.8476,0.8477,0,0,0.7821,0.786,0.785,0.7886,0.7941,0.7991,0.7988,0.8058,0.8088,0.8095,0.8167,0.818,0.8218,0.8253,0.8275,0.8194,0.8248,0.82,0.8133,0.8125,0.8113,0.8104,0.8076,0.8065,0.8195,0.8195,0.8195,0,0.7746,0.7766,0.7839,0.7844,0.7865,0.7951,0.7942,0.7972,0.8033,0.8046,0.8079,0.8129,0.817,0.8172,0.8152,0.8167,0.8167,0.8193,0.8109,0.81,0.8092,0.8066,0.8056,0.8189,0.819,0.819,0.8191,0,0.7672,0.7685,0.767,0.7726,0.7746,0.7743,0.7816,0.7827,0.7874,0.7921,0.7928,0.798,0.8018,0.8022,0.8068,0.803,0.8048,0.8093,0.8153,0.8071,0.8048,0.8039,0.818,0.8182,0.8184,0.8186,0,0,0.7511,0.7606,0.76,0.7626,0.7693,0.7705,0.7706,0.7743,0.7752,0.779,0.7794,0.7824,0.7867,0.7893,0.7943,0.7936,0.787,0.7984,0.7986,0.7962,0.7832,0.7798,0.7785,0.7906,0.7904,0.7903,0.7828,0,0.743,0.7438,0.7503,0.7492,0.7506,0.7587,0.7589,0.763,0.7673,0.7691,0.774,0.776,0.7815,0.7831,0.7827,0.7879,0.7845,0.7885,0.7911,0.7911,0.7897,0.7774,0.7738,0.7665,0.782,0.7818,0.7817,0,0.7337,0.7369,0.736,0.7427,0.7435,0.7435,0.7475,0.749,0.7539,0.7571,0.7599,0.7656,0.7663,0.7718,0.7729,0.7754,0.7769,0.7796,0.7795,0.7801,0.786,0.7777,0.7643,0.7632,0.7804,0.7805,0.7806,0,0.7221,0.7263,0.7263,0.7283,0.7361,0.7359,0.7392,0.7443,0.7461,0.7495,0.7508,0.7542,0.7561,0.7587,0.7652,0.7685,0.7656,0.7716,0.7684,0.7682,0.7675,0.7675,0.7542,0.7682,0.7682,0.7682,0.7683,0,0.7125,0.7116,0.7212,0.7212,0.7205,0.728,0.7271,0.7311,0.7356,0.7365,0.7438,0.7445,0.753,0.7548,0.7598,0.7601,0.7608,0.7635,0.7649,0.763,0.7626,0.7641,0.7648,0.768,0.768,0.7681,0.7681,0,0.6995,0.7059,0.7064,0.7137,0.7156,0.7147,0.721,0.7214,0.7261,0.7272,0.728,0.7354,0.7379,0.7446,0.7487,0.7522,0.751,0.7535,0.7493,0.7502,0.7467,0.7469,0.734,0.7327,0.7473,0.7472,0.7471,0,0.693,0.6926,0.6998,0.7009,0.7039,0.7056,0.7075,0.7148,0.7165,0.722,0.7216,0.7246,0.7274,0.731,0.7368,0.74,0.7428,0.738,0.7433,0.7414,0.7428,0.7428,0.7429,0.7369,0.7367,0.7365,0.7364,0,0.6809,0.684,0.6864,0.6899,0.6919,0.695,0.6985,0.6991,0.7073,0.7088,0.7114,0.7135,0.7177,0.7207,0.7248,0.7282,0.7337,0.7346,0.7341,0.7322,0.7298,0.7311,0.7463,0.7349,0.7351,0.7352,0.7353,0.7353,0.6711,0.671,0.6761,0.6786,0.6819,0.6851,0.6858,0.6906,0.6928,0.6968,0.701,0.7031,0.708,0.7141,0.7171,0.7189,0.7218,0.721,0.7208,0.7205,0.7197,0.7294,0.7197,0.7198,0.7198,0.7198,0.7199,0,0.6594,0.663,0.6652,0.6699,0.6718,0.6766,0.6808,0.6821,0.6838,0.6879,0.6905,0.6934,0.6963,0.7023,0.7057,0.706,0.7086,0.7066,0.7068,0.7075,0.7168,0.717,0.7045,0.7045,0.7045,0.7045,0.7045,0.7045,0.6535,0.6538,0.6575,0.6595,0.6632,0.6653,0.6673,0.6702,0.6735,0.6764,0.6788,0.6827,0.6876,0.6914,0.6943,0.696,0.697,0.6942,0.6967,0.7054,0.7068,0.7082,0.7084,0.6943,0.6943,0.6873,0.6872,0.6872]}]]